Overview Statistics Trail Chart Weather Telemetry Raw packets
 

This is the latest recevied weather packets stored in our database for station/object SQ9SMC-13. If no packets are shown the sender has not sent any weather packets the latest 10 day(s).

<< 57 58 59 60 61 62 63 >>
Time Temp. Humidity Pressure Rain* Wind** Luminosity Snow
1777320603 2.22° C 76% 1022.8 hPa 0 mm - 0 W/m² -
1777320302 2.22° C 75% 1023 hPa 0 mm - 0 W/m² -
1777320005 2.22° C 75% 1023 hPa 0 mm - 0 W/m² -
1777319704 2.22° C 74% 1023 hPa 0 mm - 0 W/m² -
1777319403 2.78° C 73% 1023.1 hPa 0 mm - 0 W/m² -
1777319104 2.22° C 73% 1023 hPa 0 mm - 0 W/m² -
1777318805 2.78° C 72% 1023 hPa 0 mm - 0 W/m² -
1777318503 2.78° C 71% 1023.3 hPa 0 mm - 0 W/m² -
1777318203 3.33° C 71% 1023 hPa 0 mm - 0 W/m² -
1777317903 3.33° C 70% 1023.2 hPa 0 mm - 0 W/m² -
1777317604 3.89° C 69% 1023 hPa 0 mm - 0 W/m² -
1777317307 3.89° C 67% 1023 hPa 0 mm - 0 W/m² -
1777317006 4.44° C 67% 1023.1 hPa 0 mm - 0 W/m² -
1777316703 5° C 64% 1022.9 hPa 0 mm - 0 W/m² -
1777316404 5° C 65% 1023.1 hPa 0 mm - 0 W/m² -
1777316102 5° C 65% 1023 hPa 0 mm - 0 W/m² -
1777315803 5° C 64% 1023.1 hPa 0 mm - 0 W/m² -
1777315505 5.56° C 63% 1023 hPa 0 mm - 0 W/m² -
1777315203 6.11° C 61% 1023.1 hPa 0 mm - 0 W/m² -
1777314903 6.11° C 59% 1022.9 hPa 0 mm - 0 W/m² -
1777314606 6.67° C 58% 1023.1 hPa 0 mm - 0 W/m² -
1777314305 6.67° C 57% 1022.6 hPa 0 mm - 0 W/m² -
1777314003 7.22° C 54% 1023 hPa 0 mm - 0 W/m² -
1777313703 7.78° C 53% 1022.8 hPa 0 mm - 0 W/m² -
1777313403 8.33° C 50% 1022.7 hPa 0 mm - 0 W/m² -

* Rain latest hour (hover to see other rain measurements)
** Current wind speed in m/s (hover to see current wind gust speed)